Location: Tarleton Observatory
(32.2162°N, 98.0976°W)
Time: 13:52:37
(UTC-06:00)

Daily predictions for brighter satellites

Satellite Brightness Start Highest point End
(mag) Time Altitude Azimuth Time Altitude Azimuth Time Altitude Azimuth
Cosmos 1484 Rocket 4.2 17:51:22 10° ESE 17:53:49 17° ENE 17:56:15 10° NNE
CZ-2C R/B 2.5 17:49:05 10° SSE 17:53:49 55° ENE 17:58:45 10° N
SPOT 3 Rocket 3.6 17:49:52 10° SSE 17:54:58 60° ENE 18:00:05 10° N
Meteor 1-5 Rocket 4.3 17:52:39 10° N 17:57:56 52° E 18:03:22 10° SSE
Cosmos 1238 Rocket 3.0 17:58:02 10° SSE 18:00:45 28° E 18:03:21 10° NNE
PAYLOAD A 4.1 17:57:49 10° S 18:02:31 74° WSW 18:07:23 10° NNW
ASTRO F (AKARI) 4.2 18:00:46 10° NNE 18:03:53 62° ESE 18:06:59 10° S
Tiangong 1 3.3 18:03:12 10° SSE 18:04:39 13° SE 18:06:06 10° ESE
NOSS 3-1 (C) 4.5 17:57:37 10° NW 18:05:28 74° WSW 18:13:52 10° SSE
IDEFIX/ARIANE 42P 2.5 18:03:57 10° SSE 18:09:09 79° ENE 18:14:21 10° N
CRYOSAT 2 4.4 18:05:13 10° N 18:10:08 86° W 18:15:01 10° S
OPS 8737 4.4 18:09:34 10° SSW 18:13:12 66° ESE 18:16:12 11° NE
Okean 1 4.1 18:09:43 10° SSE 18:13:17 30° E 18:16:51 10° NNE
USA 32 4.0 18:08:08 10° S 18:13:20 78° E 18:18:34 10° N
Cosmos 1536 3.7 18:13:49 10° NNW 18:17:49 54° W 18:21:46 10° S
Hubble Space Telescope 2.2 18:18:42 10° W 18:22:29 35° SSW 18:26:17 10° SE
COSMO-SKYMED 1 2.6 18:19:02 10° NNE 18:23:19 58° E 18:27:34 10° S
Cosmos 1461 3.9 18:19:41 10° NW 18:23:29 47° WSW 18:27:17 10° S
Cosmos 1975 Rocket 4.5 18:19:34 10° SSW 18:23:37 39° W 18:27:40 10° N
Meteor 1-18 Rocket 4.2 18:18:20 10° S 18:23:50 68° E 18:29:29 10° NNE
Cosmos 1544 Rocket 3.6 18:21:22 10° N 18:25:47 62° E 18:30:11 10° SSE
SMAP 3.6 18:22:36 10° S 18:27:11 62° W 18:31:48 10° NNW
Cosmos 1500 4.4 18:28:52 21° ENE 18:29:17 21° ENE 18:32:15 10° SE
MSX 3.8 18:24:34 10° SSE 18:30:19 81° ENE 18:36:05 10° N
SL-24 DEB 4.2 18:25:50 10° N 18:30:34 66° E 18:35:13 10° S
Meteor 1-28 Rocket 3.7 18:29:51 15° NE 18:32:37 37° E 18:36:09 10° SSE
CZ-4 R/B 3.3 18:29:28 10° SSW 18:33:18 34° W 18:37:06 10° NNW
Cosmos 1346 Rocket 3.3 18:33:03 10° SSE 18:36:41 36° E 18:38:33 23° NE
Cosmos 1536 Rocket 3.5 18:35:35 10° S 18:40:00 84° E 18:44:30 10° N
Cosmos 1812 3.0 18:38:01 10° SSW 18:41:51 69° W 18:45:42 10° N
YAOGAN 1 4.2 18:42:31 10° SSW 18:46:30 36° W 18:50:30 10° NNW
NOSS 3-3 (A) 3.9 18:40:55 10° SSW 18:47:01 86° ESE 18:52:23 16° NNE
NOSS 3-3 (C) 3.9 18:41:02 10° SSW 18:47:07 85° ESE 18:52:28 16° NNE
Cosmos 494 Rocket 4.0 18:44:07 10° N 18:49:16 54° ENE 18:54:23 10° SSE
OTV 4 0.9 18:52:23 10° WNW 18:55:03 47° N 18:55:03 47° N
Cosmos 2251 Rocket 3.4 18:50:59 10° NNW 18:56:21 76° ENE 19:01:38 10° SSE
FALCON 9 R/B 3.6 18:30:33 10° WSW 18:57:39 89° SSE 19:01:52 30° ENE
Meteor 1-12 Rocket 4.2 18:52:00 10° N 18:57:48 87° E 19:03:41 10° S
Cosmos 1975 2.7 18:54:07 10° N 18:58:11 72° E 19:02:12 10° SSE
Okean 1-7 Rocket 3.8 18:56:32 10° SSE 19:00:52 47° E 19:01:26 44° ENE
ATLAS 2AS CENTAUR R/B 2.9 18:53:00 10° NNW 19:00:58 65° ENE 19:08:17 10° SE
SL-27 R/B 3.2 19:02:34 10° NNW 19:06:10 56° WSW 19:09:43 10° S
GEOS 3 Rocket 3.4 19:03:30 10° SE 19:08:37 83° NE 19:13:45 10° NNW
Cosmos 2297 3.6 19:04:03 10° S 19:09:36 62° ESE 19:11:32 40° NE
SL-24 R/B - RUBIN 2 4.4 19:06:40 10° SSW 19:12:43 75° ESE 19:15:39 35° NE
Cosmos 921 Rocket 3.5 19:09:11 10° S 19:12:15 41° SE 19:12:15 41° SE
Meteor 1-19 Rocket 4.2 19:09:29 10° S 19:15:08 65° E 19:17:46 33° NNE
Cosmos 1455 Rocket 4.4 19:11:26 10° NNW 19:15:33 40° W 19:19:41 10° SSW
ATLAS 3B CENTAUR R/B 3.3 19:01:51 10° WSW 19:19:09 66° S 19:22:04 38° ESE
Timation 1 Rocket 4.2 19:17:43 10° S 19:23:36 67° ESE 19:24:42 55° ENE
Delta 2 Rocket 3.6 19:22:50 10° WSW 19:26:31 63° SSW 19:26:31 63° SSW
Cosmos 2278 Rocket 3.4 19:22:12 10° SW 19:27:27 39° WNW 19:31:58 14° N
Meteor 1-13 Rocket 4.3 19:23:14 10° SSW 19:28:48 74° W 19:32:59 19° N
CZ-3B DEB 4.1 19:26:01 10° WNW 19:29:58 25° NNW 19:34:11 18° NNE
Cosmos 2239 Rocket 4.3 19:28:51 10° N 19:35:02 68° E 19:41:08 10° SSE
Tiangong 1 4.1 19:37:35 10° WSW 19:38:20 16° WSW 19:38:20 16° WSW
Cosmos 2082 Rocket 4.4 19:52:03 10° NNW 19:52:44 14° N 19:52:44 14° N
Hubble Space Telescope 3.6 20:01:04 10° SW 20:02:26 13° SW 20:02:26 13° SW
Aurora 2 Rocket 4.5 19:56:38 10° WSW 20:06:06 49° S 20:06:38 48° SSE
